UAE55K OMDB-LOWW

Flight info

Callsign UAE55K
Flight time 6h 4m
Altitude 40000
Route RIDAP M557 TUMAK L602 TASMI UL602 GADSI UM860 SEPTU DCT VUSEB UM860 ODALI UL852 NEGEM DCT DEGET DCT BALUX DCT TORNO DCT NATEX
Aircraft A359/H-SDE2E3GHIJ3J4J5LM1ORWXY/LB1D1

Departure

Time 2026-04-22 11:29
Airport Dubai International Airport (OMDB)

Arrival

Time 2026-04-22 17:33
Airport Vienna International Airport (LOWW)
Time Latitude Longitude Altitude Speed Heading
2026-04-22 10:35 25.24659 55.36306 27 ft 0 kts 31°
2026-04-22 11:11 25.24649 55.36299 27 ft 4 kts 31°
2026-04-22 11:11 25.24627 55.36284 29 ft 4 kts 31°
2026-04-22 11:11 25.24603 55.36269 25 ft 4 kts 36°
2026-04-22 11:12 25.24590 55.36254 24 ft 4 kts 110°
2026-04-22 11:12 25.24599 55.36236 22 ft 4 kts 121°
2026-04-22 11:12 25.24610 55.36217 26 ft 0 kts 121°
2026-04-22 11:17 25.24602 55.36231 25 ft 8 kts 121°
2026-04-22 11:17 25.24543 55.36337 27 ft 24 kts 121°
2026-04-22 11:18 25.24465 55.36478 27 ft 19 kts 118°
2026-04-22 11:18 25.24458 55.36618 27 ft 17 kts 68°
2026-04-22 11:18 25.24531 55.36708 27 ft 15 kts 42°
2026-04-22 11:18 25.24544 55.36743 27 ft 0 kts 90°
2026-04-22 11:19 25.24544 55.36757 27 ft 7 kts 90°
2026-04-22 11:19 25.24573 55.36825 27 ft 12 kts 41°
2026-04-22 11:19 25.24637 55.36872 27 ft 0 kts 32°
2026-04-22 11:21 25.24654 55.36883 27 ft 10 kts 32°
2026-04-22 11:21 25.24690 55.36952 28 ft 9 kts 111°
2026-04-22 11:21 25.24625 55.37070 28 ft 26 kts 122°
2026-04-22 11:21 25.24516 55.37267 27 ft 21 kts 121°
2026-04-22 11:22 25.24432 55.37419 27 ft 25 kts 122°
2026-04-22 11:22 25.24334 55.37592 27 ft 25 kts 122°
2026-04-22 11:22 25.24261 55.37723 27 ft 9 kts 120°
2026-04-22 11:22 25.24256 55.37770 27 ft 4 kts 53°
2026-04-22 11:23 25.24291 55.37794 28 ft 8 kts 33°
2026-04-22 11:23 25.24351 55.37837 28 ft 9 kts 33°
2026-04-22 11:23 25.24353 55.37839 28 ft 0 kts 33°
2026-04-22 11:24 25.24362 55.37846 28 ft 7 kts 33°
2026-04-22 11:24 25.24437 55.37901 30 ft 18 kts 34°
2026-04-22 11:24 25.24548 55.37986 29 ft 21 kts 34°
2026-04-22 11:24 25.24641 55.38053 30 ft 0 kts 32°
2026-04-22 11:27 25.24644 55.38056 30 ft 5 kts 32°
2026-04-22 11:27 25.24727 55.38111 32 ft 16 kts 31°
2026-04-22 11:28 25.24761 55.38109 33 ft 0 kts 303°
2026-04-22 11:28 25.24790 55.38058 32 ft 34 kts 302°
2026-04-22 11:28 25.25038 55.37608 33 ft 101 kts 301°
2026-04-22 11:28 25.25507 55.36763 30 ft 156 kts 302°
2026-04-22 11:29 25.26121 55.35650 456 ft 168 kts 306°
2026-04-22 11:29 25.26731 55.34573 1081 ft 166 kts 309°
2026-04-22 11:29 25.27370 55.33440 1301 ft 181 kts 306°
2026-04-22 11:29 25.28038 55.32240 1681 ft 189 kts 303°
2026-04-22 11:30 25.28758 55.30937 1834 ft 209 kts 303°
2026-04-22 11:30 25.29552 55.29501 2079 ft 228 kts 301°
2026-04-22 11:30 25.30439 55.28002 2534 ft 236 kts 303°
2026-04-22 11:30 25.31207 55.26350 2792 ft 251 kts 285°
2026-04-22 11:31 25.31566 55.24434 3189 ft 258 kts 276°
2026-04-22 11:31 25.31796 55.22449 3685 ft 261 kts 274°
2026-04-22 11:31 25.32000 55.20461 4313 ft 261 kts 274°
2026-04-22 11:31 25.32198 55.18469 4894 ft 261 kts 274°
2026-04-22 11:32 25.32394 55.16451 5354 ft 267 kts 273°
2026-04-22 11:32 25.32590 55.14427 5824 ft 270 kts 272°
2026-04-22 11:32 25.32789 55.12359 6360 ft 271 kts 272°
2026-04-22 11:32 25.32987 55.10293 6914 ft 270 kts 272°
2026-04-22 11:33 25.33184 55.08237 7472 ft 268 kts 272°
2026-04-22 11:33 25.33380 55.06192 8047 ft 267 kts 272°
2026-04-22 11:33 25.33575 55.04148 8624 ft 266 kts 273°
2026-04-22 11:33 25.33768 55.02123 9223 ft 265 kts 273°
2026-04-22 11:34 25.33960 55.00103 9814 ft 263 kts 273°
2026-04-22 11:34 25.34150 54.98093 10363 ft 262 kts 273°
2026-04-22 11:34 25.34339 54.96103 10933 ft 260 kts 273°
2026-04-22 11:34 25.34526 54.94126 11505 ft 257 kts 273°
2026-04-22 11:35 25.34713 54.92152 11924 ft 263 kts 274°
2026-04-22 11:35 25.35051 54.90106 12107 ft 279 kts 283°
2026-04-22 11:35 25.35620 54.87997 12294 ft 293 kts 285°
2026-04-22 11:35 25.36257 54.85799 12493 ft 306 kts 285°
2026-04-22 11:36 25.36921 54.83511 12709 ft 318 kts 285°
2026-04-22 11:36 25.37597 54.81171 12915 ft 329 kts 285°
2026-04-22 11:36 25.38311 54.78685 13097 ft 340 kts 285°
2026-04-22 11:36 25.39035 54.76156 13302 ft 349 kts 285°
2026-04-22 11:37 25.39774 54.73576 13619 ft 354 kts 285°
2026-04-22 11:37 25.40512 54.70999 13963 ft 357 kts 285°
2026-04-22 11:37 25.41263 54.68380 14360 ft 358 kts 285°
2026-04-22 11:37 25.42012 54.65751 14764 ft 359 kts 285°
2026-04-22 11:38 25.42762 54.63111 15163 ft 360 kts 285°
2026-04-22 11:38 25.43513 54.60478 15735 ft 356 kts 285°
2026-04-22 11:38 25.45014 54.55394 17224 ft 339 kts 286°
2026-04-22 11:39 25.45746 54.52946 18011 ft 331 kts 286°
2026-04-22 11:39 25.46459 54.50563 18698 ft 322 kts 286°
2026-04-22 11:39 25.47150 54.48242 19401 ft 312 kts 285°
2026-04-22 11:39 25.47817 54.45996 20105 ft 302 kts 285°
2026-04-22 11:40 25.48462 54.43821 20836 ft 292 kts 285°
2026-04-22 11:40 25.49079 54.41734 21583 ft 280 kts 284°
2026-04-22 11:40 25.49671 54.39733 22335 ft 267 kts 284°
2026-04-22 11:40 25.50233 54.37835 23140 ft 252 kts 283°
2026-04-22 11:41 25.50767 54.36027 23670 ft 243 kts 283°
2026-04-22 11:41 25.51285 54.34262 24044 ft 239 kts 283°
2026-04-22 11:41 25.51793 54.32520 24355 ft 237 kts 283°
2026-04-22 11:41 25.52299 54.30778 24570 ft 240 kts 283°
2026-04-22 11:42 25.52815 54.28997 24664 ft 247 kts 283°
2026-04-22 11:42 25.53348 54.27162 24769 ft 254 kts 283°
2026-04-22 11:42 25.53896 54.25277 24873 ft 261 kts 283°
2026-04-22 11:42 25.54271 54.23996 24947 ft 266 kts 284°
2026-04-22 11:43 25.54850 54.22036 25061 ft 274 kts 284°
2026-04-22 11:43 25.55447 54.20006 25173 ft 281 kts 284°
2026-04-22 11:43 25.56058 54.17921 25285 ft 289 kts 284°
2026-04-22 11:43 25.56685 54.15780 25396 ft 296 kts 284°
2026-04-22 11:44 25.57541 54.12858 25552 ft 306 kts 284°
2026-04-22 11:44 25.58206 54.10588 25656 ft 313 kts 284°
2026-04-22 11:44 25.58663 54.09026 25737 ft 318 kts 284°
2026-04-22 11:44 25.59353 54.06670 25847 ft 325 kts 284°
2026-04-22 11:45 25.60059 54.04261 25958 ft 332 kts 284°
2026-04-22 11:45 25.60754 54.01835 26072 ft 338 kts 284°
2026-04-22 11:45 25.61476 53.99291 26191 ft 345 kts 284°
2026-04-22 11:45 25.62201 53.96731 26311 ft 351 kts 284°
2026-04-22 11:46 25.62929 53.94161 26429 ft 358 kts 284°
2026-04-22 11:46 25.63682 53.91507 26540 ft 364 kts 284°
2026-04-22 11:46 25.64446 53.88816 26639 ft 370 kts 284°
2026-04-22 11:46 25.65224 53.86078 26756 ft 375 kts 284°
2026-04-22 11:47 25.66014 53.83300 26874 ft 381 kts 285°
2026-04-22 11:47 25.66816 53.80479 26966 ft 386 kts 285°
2026-04-22 11:47 25.67626 53.77624 27067 ft 391 kts 285°
2026-04-22 11:47 25.68449 53.74725 27177 ft 397 kts 285°
2026-04-22 11:48 25.69281 53.71788 27295 ft 401 kts 285°
2026-04-22 11:48 25.70120 53.68819 27402 ft 406 kts 285°
2026-04-22 11:48 25.70963 53.65823 27603 ft 408 kts 285°
2026-04-22 11:48 25.71810 53.62810 27849 ft 410 kts 285°
2026-04-22 11:49 25.72658 53.59787 28107 ft 411 kts 285°
2026-04-22 11:49 25.73509 53.56753 28378 ft 412 kts 285°
2026-04-22 11:49 25.74361 53.53714 28647 ft 413 kts 285°
2026-04-22 11:49 25.75214 53.50668 28927 ft 414 kts 285°
2026-04-22 11:50 25.76079 53.47600 29154 ft 417 kts 285°
2026-04-22 11:50 25.76944 53.44522 29391 ft 419 kts 285°
2026-04-22 11:50 25.77811 53.41429 29667 ft 420 kts 285°
2026-04-22 11:50 25.78678 53.38330 29945 ft 421 kts 285°
2026-04-22 11:51 25.79549 53.35218 30189 ft 423 kts 285°
2026-04-22 11:51 25.80422 53.32093 30435 ft 425 kts 285°
2026-04-22 11:51 25.81298 53.28960 30670 ft 426 kts 285°
2026-04-22 11:51 25.82178 53.25809 30925 ft 428 kts 285°
2026-04-22 11:52 25.83057 53.22658 31231 ft 428 kts 285°
2026-04-22 11:52 25.83955 53.19550 31502 ft 429 kts 288°
2026-04-22 11:52 25.85084 53.16465 31700 ft 432 kts 290°
2026-04-22 11:52 25.86289 53.13395 31934 ft 434 kts 291°
2026-04-22 11:53 25.87524 53.10328 32169 ft 436 kts 291°
2026-04-22 11:53 25.88778 53.07255 32367 ft 438 kts 292°
2026-04-22 11:53 25.90042 53.04169 32580 ft 439 kts 292°
2026-04-22 11:53 25.91307 53.01076 32773 ft 441 kts 292°
2026-04-22 11:54 25.92571 52.97980 33099 ft 439 kts 292°
2026-04-22 11:54 25.93828 52.94894 33387 ft 439 kts 292°
2026-04-22 11:54 25.95086 52.91795 33575 ft 441 kts 292°
2026-04-22 11:54 25.96346 52.88686 33764 ft 442 kts 292°
2026-04-22 11:55 25.97606 52.85574 34040 ft 441 kts 292°
2026-04-22 11:55 25.98857 52.82482 34337 ft 438 kts 292°
2026-04-22 11:55 26.00106 52.79396 34651 ft 436 kts 291°
2026-04-22 11:55 26.01345 52.76329 34940 ft 434 kts 291°
2026-04-22 11:56 26.02581 52.73289 35350 ft 430 kts 292°
2026-04-22 11:56 26.03880 52.70281 35405 ft 435 kts 294°
2026-04-22 11:56 26.06632 52.64268 35780 ft 435 kts 294°
2026-04-22 11:57 26.08009 52.61286 36131 ft 432 kts 294°
2026-04-22 11:57 26.09371 52.58315 36490 ft 429 kts 294°
2026-04-22 11:57 26.10711 52.55366 36814 ft 426 kts 294°
2026-04-22 11:57 26.12019 52.52471 37114 ft 424 kts 294°
2026-04-22 11:58 26.13336 52.49551 37486 ft 419 kts 293°
2026-04-22 11:58 26.14637 52.46667 37861 ft 416 kts 293°
2026-04-22 11:58 26.15930 52.43796 38129 ft 414 kts 293°
2026-04-22 11:58 26.17218 52.40936 38354 ft 414 kts 293°
2026-04-22 11:59 26.18509 52.38064 38469 ft 415 kts 293°
2026-04-22 11:59 26.19801 52.35188 38617 ft 415 kts 293°
2026-04-22 11:59 26.21091 52.32316 38755 ft 415 kts 293°
2026-04-22 11:59 26.22382 52.29442 38893 ft 415 kts 293°
2026-04-22 12:00 26.23653 52.26563 38999 ft 415 kts 292°
2026-04-22 12:00 26.24905 52.23671 39130 ft 414 kts 292°
2026-04-22 12:00 26.26150 52.20770 39260 ft 414 kts 292°
2026-04-22 12:00 26.27391 52.17874 39364 ft 414 kts 292°
2026-04-22 12:01 26.28635 52.14976 39480 ft 415 kts 292°
2026-04-22 12:01 26.29879 52.12084 39578 ft 415 kts 292°
2026-04-22 12:01 26.31128 52.09186 39714 ft 415 kts 292°
2026-04-22 12:01 26.32382 52.06281 39742 ft 417 kts 292°
2026-04-22 12:02 26.34903 52.00447 39831 ft 417 kts 292°
2026-04-22 12:02 26.37361 51.94637 39837 ft 412 kts 289°
2026-04-22 12:03 26.39446 51.88688 39840 ft 411 kts 288°
2026-04-22 12:03 26.41462 51.82710 39840 ft 411 kts 288°
2026-04-22 12:04 26.43460 51.76733 39844 ft 410 kts 288°
2026-04-22 12:04 26.45437 51.70808 39855 ft 410 kts 288°
2026-04-22 12:05 26.47438 51.64828 39848 ft 412 kts 288°
2026-04-22 12:05 26.49444 51.58827 39853 ft 412 kts 288°
2026-04-22 12:06 26.51437 51.52824 39849 ft 411 kts 287°
2026-04-22 12:06 26.53413 51.46865 39853 ft 410 kts 287°
2026-04-22 12:07 26.55397 51.40880 39851 ft 410 kts 287°
2026-04-22 12:07 26.57380 51.34895 39861 ft 411 kts 287°
2026-04-22 12:08 26.59357 51.28914 39849 ft 412 kts 287°
2026-04-22 12:08 26.61350 51.22901 39850 ft 412 kts 287°
2026-04-22 12:09 26.63337 51.16897 39853 ft 412 kts 287°
2026-04-22 12:09 26.65323 51.10887 39852 ft 412 kts 287°
2026-04-22 12:10 26.67292 51.04918 39853 ft 412 kts 287°
2026-04-22 12:10 26.69271 50.98905 39861 ft 412 kts 287°
2026-04-22 12:11 26.71206 50.92873 39856 ft 413 kts 286°
2026-04-22 12:11 26.73128 50.86821 39849 ft 413 kts 286°
2026-04-22 12:12 26.75055 50.80766 39854 ft 413 kts 286°
2026-04-22 12:12 26.76986 50.74706 39859 ft 414 kts 286°
2026-04-22 12:13 26.78919 50.68724 39857 ft 415 kts 288°
2026-04-22 12:13 26.81718 50.63034 39869 ft 422 kts 301°
2026-04-22 12:14 26.85343 50.57816 39860 ft 426 kts 303°
2026-04-22 12:14 26.89105 50.52693 39868 ft 426 kts 303°
2026-04-22 12:15 26.92893 50.47577 39867 ft 427 kts 304°
2026-04-22 12:15 26.96962 50.42686 39890 ft 430 kts 307°
2026-04-22 12:16 27.01147 50.37871 39874 ft 431 kts 307°
2026-04-22 12:16 27.05272 50.33045 39875 ft 431 kts 306°
2026-04-22 12:17 27.09373 50.28134 39880 ft 431 kts 306°
2026-04-22 12:17 27.13444 50.23196 39888 ft 431 kts 306°
2026-04-22 12:18 27.17879 50.18574 39884 ft 441 kts 314°
2026-04-22 12:18 27.22752 50.14436 39886 ft 431 kts 315°
2026-04-22 12:19 27.25143 50.12479 39886 ft 420 kts 315°
2026-04-22 12:19 27.27490 50.10565 39889 ft 415 kts 315°
2026-04-22 12:19 27.32138 50.06742 39883 ft 414 kts 315°
2026-04-22 12:20 27.36753 50.02919 39888 ft 414 kts 315°
2026-04-22 12:20 27.41310 49.98973 39871 ft 412 kts 313°
2026-04-22 12:21 27.45804 49.94963 39884 ft 412 kts 313°
2026-04-22 12:21 27.50304 49.90965 39895 ft 412 kts 313°
2026-04-22 12:22 27.54816 49.86981 39892 ft 412 kts 313°
2026-04-22 12:22 27.59331 49.82998 39887 ft 412 kts 313°
2026-04-22 12:23 27.63848 49.79012 39892 ft 412 kts 313°
2026-04-22 12:23 27.68365 49.75020 39904 ft 412 kts 313°
2026-04-22 12:24 27.72877 49.71028 39891 ft 412 kts 313°
2026-04-22 12:24 27.77381 49.67039 39893 ft 411 kts 313°
2026-04-22 12:25 27.81877 49.63044 39892 ft 411 kts 313°
2026-04-22 12:25 27.86360 49.59035 39895 ft 411 kts 313°
2026-04-22 12:26 27.90819 49.55044 39892 ft 412 kts 313°
2026-04-22 12:26 27.95315 49.51020 39893 ft 412 kts 313°
2026-04-22 12:27 27.99801 49.47003 39892 ft 411 kts 313°
2026-04-22 12:27 28.04282 49.42984 39897 ft 411 kts 313°
2026-04-22 12:28 28.08744 49.38920 39898 ft 412 kts 313°
2026-04-22 12:28 28.13199 49.34839 39898 ft 412 kts 313°
2026-04-22 12:29 28.17660 49.30755 39899 ft 412 kts 313°
2026-04-22 12:29 28.22115 49.26679 39898 ft 412 kts 313°
2026-04-22 12:30 28.28818 49.20546 39903 ft 413 kts 313°
2026-04-22 12:31 28.33285 49.16452 39904 ft 413 kts 312°
2026-04-22 12:31 28.35076 49.14544 40057 ft 407 kts 307°
2026-04-22 12:31 28.37180 49.12354 40001 ft 413 kts 312°
2026-04-22 12:32 28.41934 49.08557 39895 ft 421 kts 319°
2026-04-22 12:32 28.49326 49.03160 39902 ft 420 kts 317°
2026-04-22 12:33 28.54185 48.99480 39901 ft 419 kts 317°
2026-04-22 12:33 28.58203 48.96393 39901 ft 420 kts 317°
2026-04-22 12:34 28.63034 48.92669 39903 ft 420 kts 317°
2026-04-22 12:34 28.67871 48.88942 39902 ft 420 kts 317°
2026-04-22 12:35 28.72707 48.85215 39908 ft 420 kts 317°
2026-04-22 12:35 28.77544 48.81483 39906 ft 420 kts 317°
2026-04-22 12:36 28.82383 48.77751 39903 ft 420 kts 317°
2026-04-22 12:36 28.87236 48.74034 39932 ft 421 kts 317°
2026-04-22 12:37 28.92098 48.70314 39908 ft 421 kts 317°
2026-04-22 12:37 28.96958 48.66588 39906 ft 420 kts 317°
2026-04-22 12:38 29.01815 48.62856 39893 ft 420 kts 317°
2026-04-22 12:38 29.06662 48.59127 39902 ft 420 kts 317°
2026-04-22 12:39 29.13932 48.53526 39902 ft 420 kts 317°
2026-04-22 12:40 29.18774 48.49790 39907 ft 420 kts 317°
2026-04-22 12:40 29.23620 48.46047 39905 ft 420 kts 317°
2026-04-22 12:41 29.28463 48.42302 39896 ft 420 kts 317°
2026-04-22 12:41 29.33304 48.38554 39904 ft 420 kts 317°
2026-04-22 12:42 29.38111 48.34828 39914 ft 420 kts 317°
2026-04-22 12:42 29.42948 48.31075 39900 ft 420 kts 317°
2026-04-22 12:43 29.47913 48.27482 39900 ft 425 kts 321°
2026-04-22 12:43 29.53098 48.24179 39901 ft 426 kts 322°
2026-04-22 12:44 29.58284 48.20877 39903 ft 426 kts 321°
2026-04-22 12:44 29.63434 48.17520 39903 ft 425 kts 321°
2026-04-22 12:45 29.68561 48.14137 39901 ft 425 kts 320°
2026-04-22 12:45 29.73684 48.10746 39913 ft 425 kts 321°
2026-04-22 12:46 29.78805 48.07356 39900 ft 425 kts 321°
2026-04-22 12:46 29.83931 48.03960 39901 ft 425 kts 321°
2026-04-22 12:47 29.89062 48.00559 39921 ft 425 kts 320°
2026-04-22 12:47 29.94185 47.97159 39901 ft 425 kts 320°
2026-04-22 12:48 29.99304 47.93742 39903 ft 423 kts 319°
2026-04-22 12:48 30.03793 47.89593 39904 ft 407 kts 305°
2026-04-22 12:49 30.07579 47.84781 39904 ft 405 kts 303°
2026-04-22 12:49 30.11252 47.79852 39904 ft 406 kts 303°
2026-04-22 12:50 30.14952 47.74854 39901 ft 413 kts 303°
2026-04-22 12:50 30.18709 47.69808 39902 ft 420 kts 303°
2026-04-22 12:51 30.22562 47.64647 39906 ft 427 kts 303°
2026-04-22 12:51 30.26478 47.59402 39908 ft 434 kts 303°
2026-04-22 12:52 30.30433 47.54102 39908 ft 435 kts 303°
2026-04-22 12:52 30.34377 47.48809 39904 ft 434 kts 303°
2026-04-22 12:53 30.38321 47.43503 39911 ft 434 kts 303°
2026-04-22 12:53 30.42260 47.38194 39908 ft 434 kts 303°
2026-04-22 12:54 30.46121 47.32984 39918 ft 434 kts 303°
2026-04-22 12:54 30.50024 47.27711 39910 ft 434 kts 303°
2026-04-22 12:55 30.53953 47.22394 39908 ft 434 kts 303°
2026-04-22 12:55 30.58220 47.17367 39903 ft 443 kts 311°
2026-04-22 12:56 30.62978 47.12795 39909 ft 445 kts 313°
2026-04-22 12:56 30.67802 47.08313 39906 ft 437 kts 313°
2026-04-22 12:56 30.70144 47.06155 39911 ft 424 kts 313°
2026-04-22 12:57 30.72428 47.04044 39915 ft 417 kts 313°
2026-04-22 12:57 30.76924 46.99840 39921 ft 415 kts 312°
2026-04-22 12:58 30.81419 46.95610 39901 ft 416 kts 312°
2026-04-22 12:58 30.85921 46.91376 39906 ft 416 kts 312°
2026-04-22 12:59 30.90426 46.87142 39934 ft 416 kts 312°
2026-04-22 12:59 30.94903 46.82932 39908 ft 416 kts 312°
2026-04-22 13:00 30.99407 46.78690 39909 ft 416 kts 312°
2026-04-22 13:00 31.03939 46.74416 39912 ft 416 kts 312°
2026-04-22 13:01 31.08412 46.70192 39900 ft 416 kts 312°
2026-04-22 13:01 31.12916 46.65933 39916 ft 416 kts 312°
2026-04-22 13:02 31.17417 46.61673 39904 ft 416 kts 312°
2026-04-22 13:02 31.21914 46.57410 39912 ft 416 kts 312°
2026-04-22 13:03 31.26406 46.53148 39916 ft 416 kts 312°
2026-04-22 13:03 31.30895 46.48882 39919 ft 415 kts 312°
2026-04-22 13:04 31.35377 46.44616 39940 ft 415 kts 312°
2026-04-22 13:04 31.39857 46.40349 39927 ft 415 kts 312°
2026-04-22 13:05 31.44334 46.36078 39925 ft 415 kts 312°
2026-04-22 13:05 31.48776 46.31836 39955 ft 415 kts 312°
2026-04-22 13:06 31.53245 46.27562 39936 ft 415 kts 312°
2026-04-22 13:06 31.57711 46.23285 39941 ft 415 kts 312°
2026-04-22 13:07 31.62179 46.19001 39944 ft 415 kts 312°
2026-04-22 13:07 31.66649 46.14710 39946 ft 415 kts 312°
2026-04-22 13:08 31.71115 46.10418 39954 ft 415 kts 312°
2026-04-22 13:08 31.75575 46.06126 39955 ft 415 kts 312°
2026-04-22 13:09 31.79999 46.01782 39959 ft 414 kts 311°
2026-04-22 13:09 31.84386 45.97403 39955 ft 414 kts 311°
2026-04-22 13:10 31.88751 45.93051 39953 ft 414 kts 311°
2026-04-22 13:10 31.93147 45.88677 39962 ft 414 kts 311°
2026-04-22 13:11 31.97546 45.84301 39955 ft 414 kts 311°
2026-04-22 13:11 32.01945 45.79918 39960 ft 414 kts 311°
2026-04-22 13:12 32.06343 45.75532 39958 ft 414 kts 311°
2026-04-22 13:12 32.10736 45.71143 39960 ft 414 kts 311°
2026-04-22 13:13 32.15127 45.66750 39964 ft 414 kts 311°
2026-04-22 13:13 32.19520 45.62350 39970 ft 414 kts 311°
2026-04-22 13:14 32.23915 45.57941 39966 ft 414 kts 311°
2026-04-22 13:14 32.28311 45.53527 39966 ft 414 kts 311°
2026-04-22 13:15 32.32699 45.49115 39971 ft 414 kts 311°
2026-04-22 13:15 32.37064 45.44718 39974 ft 415 kts 311°
2026-04-22 13:16 32.41462 45.40284 39969 ft 415 kts 311°
2026-04-22 13:16 32.45855 45.35849 39982 ft 415 kts 311°
2026-04-22 13:17 32.50247 45.31410 39975 ft 415 kts 310°
2026-04-22 13:17 32.54670 45.26994 39970 ft 419 kts 314°
2026-04-22 13:18 32.59473 45.23003 39989 ft 423 kts 316°
2026-04-22 13:18 32.64371 45.19108 39965 ft 424 kts 317°
2026-04-22 13:19 32.69285 45.15230 39976 ft 424 kts 317°
2026-04-22 13:19 32.74158 45.11370 39989 ft 424 kts 317°
2026-04-22 13:20 32.79071 45.07462 39981 ft 425 kts 317°
2026-04-22 13:20 32.83981 45.03550 39984 ft 425 kts 317°
2026-04-22 13:21 32.88893 44.99629 39994 ft 425 kts 317°
2026-04-22 13:21 32.93818 44.95693 39989 ft 427 kts 317°
2026-04-22 13:22 32.98751 44.91747 39986 ft 427 kts 317°
2026-04-22 13:22 33.03682 44.87798 39993 ft 427 kts 317°
2026-04-22 13:23 33.07784 44.84508 39988 ft 427 kts 317°
2026-04-22 13:23 33.12710 44.80552 39988 ft 427 kts 317°
2026-04-22 13:24 33.17639 44.76588 39996 ft 427 kts 317°
2026-04-22 13:24 33.22954 44.73195 39994 ft 444 kts 331°
2026-04-22 13:25 33.28947 44.71111 39996 ft 451 kts 336°
2026-04-22 13:25 33.35061 44.69323 40001 ft 453 kts 337°
2026-04-22 13:26 33.41193 44.67568 39993 ft 453 kts 337°
2026-04-22 13:26 33.47312 44.65785 39989 ft 452 kts 337°
2026-04-22 13:27 33.53377 44.63995 39991 ft 452 kts 337°
2026-04-22 13:27 33.59487 44.62183 40009 ft 452 kts 337°
2026-04-22 13:28 33.65593 44.60370 39986 ft 452 kts 337°
2026-04-22 13:28 33.71709 44.58553 39985 ft 453 kts 337°
2026-04-22 13:29 33.77830 44.56733 39983 ft 453 kts 337°
2026-04-22 13:29 33.83947 44.54911 39989 ft 453 kts 338°
2026-04-22 13:30 33.90057 44.53089 39982 ft 453 kts 338°
2026-04-22 13:30 33.96179 44.51260 39982 ft 453 kts 338°
2026-04-22 13:31 34.02296 44.49430 39980 ft 453 kts 338°
2026-04-22 13:31 34.08414 44.47596 39983 ft 453 kts 338°
2026-04-22 13:32 34.14532 44.45761 39977 ft 453 kts 338°
2026-04-22 13:32 34.20610 44.43934 39977 ft 453 kts 338°
2026-04-22 13:33 34.26726 44.42093 40004 ft 453 kts 338°
2026-04-22 13:33 34.32841 44.40250 39976 ft 453 kts 338°
2026-04-22 13:34 34.38957 44.38404 39974 ft 453 kts 338°
2026-04-22 13:34 34.45076 44.36554 39971 ft 453 kts 338°
2026-04-22 13:35 34.51191 44.34702 39971 ft 453 kts 338°
2026-04-22 13:35 34.57312 44.32846 39971 ft 453 kts 338°
2026-04-22 13:36 34.63425 44.30990 39976 ft 453 kts 338°
2026-04-22 13:36 34.69542 44.29129 39980 ft 453 kts 338°
2026-04-22 13:37 34.75661 44.27265 39972 ft 453 kts 338°
2026-04-22 13:37 34.81777 44.25399 39974 ft 453 kts 338°
2026-04-22 13:38 34.87897 44.23529 39973 ft 453 kts 338°
2026-04-22 13:38 34.97073 44.20719 39971 ft 453 kts 339°
2026-04-22 13:39 35.03183 44.18845 39972 ft 453 kts 339°
2026-04-22 13:39 35.09261 44.16978 39971 ft 453 kts 339°
2026-04-22 13:40 35.15370 44.15098 39972 ft 453 kts 339°
2026-04-22 13:40 35.21481 44.13215 39969 ft 453 kts 339°
2026-04-22 13:41 35.27591 44.11330 39971 ft 453 kts 339°
2026-04-22 13:41 35.33697 44.09442 39979 ft 453 kts 339°
2026-04-22 13:42 35.39804 44.07551 39962 ft 452 kts 339°
2026-04-22 13:42 35.45906 44.05659 39973 ft 452 kts 339°
2026-04-22 13:43 35.52012 44.03763 39971 ft 453 kts 339°
2026-04-22 13:43 35.58115 44.01864 39972 ft 453 kts 339°
2026-04-22 13:44 35.64222 43.99961 39973 ft 453 kts 339°
2026-04-22 13:44 35.70326 43.98057 39967 ft 453 kts 339°
2026-04-22 13:45 35.76432 43.96147 39971 ft 452 kts 339°
2026-04-22 13:45 35.82535 43.94236 39966 ft 452 kts 339°
2026-04-22 13:46 35.88637 43.92324 39973 ft 452 kts 339°
2026-04-22 13:46 35.94737 43.90409 39983 ft 452 kts 339°
2026-04-22 13:47 36.00801 43.88501 39994 ft 452 kts 339°
2026-04-22 13:47 36.06910 43.86576 40004 ft 453 kts 339°
2026-04-22 13:48 36.13017 43.84649 40011 ft 453 kts 339°
2026-04-22 13:48 36.19118 43.82722 40028 ft 452 kts 339°
2026-04-22 13:49 36.25215 43.80791 40016 ft 452 kts 339°
2026-04-22 13:49 36.31096 43.78237 40010 ft 446 kts 332°
2026-04-22 13:50 36.36835 43.75319 40007 ft 445 kts 331°
2026-04-22 13:50 36.42546 43.72339 39995 ft 445 kts 331°
2026-04-22 13:51 36.48262 43.69354 39987 ft 445 kts 331°
2026-04-22 13:51 36.53972 43.66379 39984 ft 445 kts 331°
2026-04-22 13:52 36.59683 43.63404 39990 ft 445 kts 331°
2026-04-22 13:52 36.65400 43.60421 39998 ft 445 kts 331°
2026-04-22 13:53 36.71112 43.57436 39993 ft 445 kts 331°
2026-04-22 13:53 36.76814 43.54436 39996 ft 445 kts 330°
2026-04-22 13:54 36.82461 43.51292 40010 ft 444 kts 330°
2026-04-22 13:54 36.88043 43.48133 40003 ft 441 kts 330°
2026-04-22 13:55 36.93619 43.44992 40007 ft 439 kts 330°
2026-04-22 13:55 36.99184 43.41868 40022 ft 436 kts 330°
2026-04-22 13:56 37.04659 43.38803 40021 ft 428 kts 330°
2026-04-22 13:56 37.10076 43.35757 40023 ft 426 kts 329°
2026-04-22 13:57 37.15488 43.32705 40027 ft 427 kts 329°
2026-04-22 13:57 37.20907 43.29646 40029 ft 427 kts 330°
2026-04-22 13:58 37.26323 43.26586 40047 ft 427 kts 330°
2026-04-22 13:58 37.31583 43.23228 40042 ft 420 kts 321°
2026-04-22 13:59 37.35902 43.18467 40041 ft 409 kts 305°
2026-04-22 13:59 37.38977 43.12545 40046 ft 404 kts 295°
2026-04-22 14:00 37.41645 43.06325 40050 ft 403 kts 294°
2026-04-22 14:00 37.44235 43.00120 40048 ft 403 kts 294°
2026-04-22 14:01 37.46857 42.93883 40043 ft 403 kts 294°
2026-04-22 14:01 37.49492 42.87657 40044 ft 403 kts 294°
2026-04-22 14:02 37.52132 42.81425 40043 ft 403 kts 294°
2026-04-22 14:02 37.54770 42.75189 40042 ft 403 kts 294°
2026-04-22 14:03 37.57405 42.68942 40041 ft 403 kts 294°
2026-04-22 14:03 37.60040 42.62691 40045 ft 404 kts 294°
2026-04-22 14:04 37.62673 42.56441 40045 ft 404 kts 294°
2026-04-22 14:04 37.65300 42.50185 40034 ft 403 kts 294°
2026-04-22 14:05 37.67905 42.43971 40034 ft 403 kts 294°
2026-04-22 14:06 37.71834 42.34578 40033 ft 403 kts 294°
2026-04-22 14:06 37.74452 42.28310 40024 ft 404 kts 294°
2026-04-22 14:07 37.77068 42.22033 40020 ft 403 kts 294°
2026-04-22 14:07 37.79680 42.15755 40021 ft 403 kts 294°
2026-04-22 14:08 37.82287 42.09470 40023 ft 404 kts 294°
2026-04-22 14:08 37.84892 42.03178 40026 ft 404 kts 294°
2026-04-22 14:09 37.87510 41.96847 40005 ft 403 kts 294°
2026-04-22 14:09 37.90108 41.90602 40011 ft 405 kts 296°
2026-04-22 14:10 37.93455 41.84812 40004 ft 410 kts 305°
2026-04-22 14:10 37.97196 41.79338 40006 ft 411 kts 307°
2026-04-22 14:11 38.00995 41.73922 40000 ft 411 kts 307°
2026-04-22 14:11 38.04150 41.69415 40012 ft 411 kts 307°
2026-04-22 14:12 38.07933 41.63978 40005 ft 411 kts 306°
2026-04-22 14:12 38.11706 41.58532 40001 ft 411 kts 306°
2026-04-22 14:13 38.15477 41.53078 40000 ft 411 kts 306°
2026-04-22 14:13 38.19249 41.47612 39998 ft 411 kts 306°
2026-04-22 14:14 38.23020 41.42138 40016 ft 411 kts 306°
2026-04-22 14:14 38.26784 41.36667 40006 ft 411 kts 306°
2026-04-22 14:15 38.30546 41.31189 40005 ft 411 kts 306°
2026-04-22 14:15 38.34303 41.25709 40007 ft 411 kts 306°
2026-04-22 14:16 38.38057 41.20224 40006 ft 411 kts 306°
2026-04-22 14:16 38.41811 41.14731 40004 ft 411 kts 306°
2026-04-22 14:17 38.45566 41.09226 40008 ft 411 kts 306°
2026-04-22 14:17 38.49286 41.03690 40008 ft 411 kts 305°
2026-04-22 14:18 38.52914 40.98113 40014 ft 411 kts 305°
2026-04-22 14:18 38.56583 40.92458 40005 ft 411 kts 305°
2026-04-22 14:19 38.60238 40.86853 40021 ft 411 kts 305°
2026-04-22 14:19 38.63866 40.81277 40015 ft 409 kts 305°
2026-04-22 14:20 38.69413 40.72898 40008 ft 411 kts 306°
2026-04-22 14:20 38.73120 40.67308 40016 ft 411 kts 305°
2026-04-22 14:21 38.78667 40.58902 40010 ft 412 kts 305°
2026-04-22 14:22 38.84210 40.50475 40022 ft 412 kts 305°
2026-04-22 14:23 38.89742 40.42045 40003 ft 411 kts 305°
2026-04-22 14:23 38.93424 40.36420 40002 ft 411 kts 305°
2026-04-22 14:24 38.97102 40.30789 40010 ft 411 kts 305°
2026-04-22 14:24 39.00776 40.25156 39999 ft 411 kts 305°
2026-04-22 14:25 39.04445 40.19520 39999 ft 411 kts 305°
2026-04-22 14:25 39.08110 40.13881 39991 ft 411 kts 305°
2026-04-22 14:26 39.11778 40.08228 39989 ft 411 kts 305°
2026-04-22 14:26 39.15410 40.02620 39988 ft 411 kts 305°
2026-04-22 14:27 39.19067 39.96964 39984 ft 411 kts 304°
2026-04-22 14:27 39.22724 39.91294 39984 ft 411 kts 304°
2026-04-22 14:28 39.26370 39.85628 39979 ft 410 kts 304°
2026-04-22 14:28 39.30018 39.79948 39984 ft 411 kts 304°
2026-04-22 14:29 39.33649 39.74274 39980 ft 409 kts 304°
2026-04-22 14:29 39.37266 39.68624 39979 ft 408 kts 304°
2026-04-22 14:30 39.40890 39.62953 39973 ft 409 kts 304°
2026-04-22 14:30 39.44473 39.57339 39972 ft 410 kts 304°
2026-04-22 14:31 39.48101 39.51650 39975 ft 410 kts 304°
2026-04-22 14:31 39.51705 39.45984 39966 ft 410 kts 304°
2026-04-22 14:32 39.55286 39.40256 39978 ft 410 kts 303°
2026-04-22 14:32 39.58847 39.34495 39980 ft 409 kts 304°
2026-04-22 14:33 39.62400 39.28756 39962 ft 408 kts 304°
2026-04-22 14:33 39.65947 39.23005 39961 ft 408 kts 304°
2026-04-22 14:34 39.69490 39.17256 39940 ft 408 kts 303°
2026-04-22 14:34 39.73043 39.11493 39944 ft 409 kts 304°
2026-04-22 14:35 39.76635 39.05758 39934 ft 409 kts 304°
2026-04-22 14:35 39.80238 39.00032 39936 ft 409 kts 304°
2026-04-22 14:36 39.83835 38.94297 39930 ft 409 kts 304°
2026-04-22 14:36 39.87429 38.88550 39924 ft 409 kts 304°
2026-04-22 14:37 39.91020 38.82788 39922 ft 410 kts 304°
2026-04-22 14:37 39.94607 38.77023 39918 ft 410 kts 304°
2026-04-22 14:38 39.98191 38.71251 39925 ft 409 kts 304°
2026-04-22 14:38 40.01776 38.65470 39913 ft 410 kts 304°
2026-04-22 14:39 40.05355 38.59688 39910 ft 409 kts 304°
2026-04-22 14:39 40.08906 38.53940 39906 ft 409 kts 304°
2026-04-22 14:40 40.14267 38.45241 39903 ft 410 kts 304°
2026-04-22 14:40 40.17842 38.39426 39896 ft 412 kts 304°
2026-04-22 14:41 40.21463 38.33518 39899 ft 421 kts 304°
2026-04-22 14:41 40.25162 38.27475 39901 ft 430 kts 304°
2026-04-22 14:42 40.28939 38.21295 39900 ft 439 kts 304°
2026-04-22 14:42 40.32543 38.14788 39897 ft 443 kts 295°
2026-04-22 14:43 40.35106 38.07425 39900 ft 447 kts 289°
2026-04-22 14:43 40.37413 37.99835 39900 ft 448 kts 288°
2026-04-22 14:44 40.39669 37.92229 39905 ft 447 kts 288°
2026-04-22 14:44 40.41929 37.84624 39905 ft 447 kts 288°
2026-04-22 14:45 40.44198 37.77017 39903 ft 446 kts 288°
2026-04-22 14:45 40.46459 37.69435 39907 ft 446 kts 288°
2026-04-22 14:46 40.48724 37.61835 39897 ft 446 kts 288°
2026-04-22 14:46 40.50960 37.54289 39920 ft 446 kts 288°
2026-04-22 14:47 40.53200 37.46699 39893 ft 445 kts 288°
2026-04-22 14:47 40.55432 37.39124 39894 ft 444 kts 288°
2026-04-22 14:48 40.57658 37.31549 39892 ft 444 kts 288°
2026-04-22 14:48 40.59882 37.23959 39898 ft 444 kts 288°
2026-04-22 14:49 40.62096 37.16383 39890 ft 444 kts 288°
2026-04-22 14:49 40.64307 37.08795 39892 ft 444 kts 288°
2026-04-22 14:50 40.66513 37.01202 39895 ft 444 kts 288°
2026-04-22 14:50 40.68712 36.93609 39895 ft 444 kts 288°
2026-04-22 14:51 40.70907 36.86011 39909 ft 443 kts 288°
2026-04-22 14:51 40.73094 36.78418 39917 ft 443 kts 288°
2026-04-22 14:52 40.75277 36.70816 39918 ft 443 kts 288°
2026-04-22 14:52 40.77446 36.63246 39931 ft 445 kts 288°
2026-04-22 14:53 40.79630 36.55602 39932 ft 446 kts 287°
2026-04-22 14:53 40.81815 36.47927 39924 ft 446 kts 287°
2026-04-22 14:54 40.83990 36.40260 39933 ft 446 kts 288°
2026-04-22 14:54 40.86159 36.32591 39926 ft 446 kts 288°
2026-04-22 14:55 40.88326 36.24913 39935 ft 446 kts 287°
2026-04-22 14:55 40.90490 36.17224 39919 ft 446 kts 287°
2026-04-22 14:56 40.92648 36.09528 39926 ft 446 kts 288°
2026-04-22 14:56 40.94804 36.01833 39919 ft 446 kts 288°
2026-04-22 14:57 40.96948 35.94145 39914 ft 445 kts 287°
2026-04-22 14:57 40.99084 35.86447 39907 ft 445 kts 287°
2026-04-22 14:58 41.01221 35.78753 39908 ft 445 kts 288°
2026-04-22 14:58 41.03351 35.71041 39899 ft 445 kts 287°
2026-04-22 14:59 41.05116 35.64633 39897 ft 446 kts 287°
2026-04-22 14:59 41.07236 35.56919 39882 ft 446 kts 287°
2026-04-22 15:00 41.09349 35.49209 39869 ft 444 kts 287°
2026-04-22 15:00 41.11444 35.41544 39875 ft 440 kts 287°
2026-04-22 15:01 41.13524 35.33908 39876 ft 440 kts 287°
2026-04-22 15:01 41.15597 35.26269 39873 ft 439 kts 287°
2026-04-22 15:02 41.17661 35.18643 39876 ft 440 kts 287°
2026-04-22 15:02 41.19728 35.10992 39880 ft 440 kts 287°
2026-04-22 15:03 41.21787 35.03342 39887 ft 440 kts 287°
2026-04-22 15:03 41.23842 34.95683 39886 ft 440 kts 287°
2026-04-22 15:04 41.25889 34.88029 39894 ft 438 kts 287°
2026-04-22 15:04 41.27915 34.80457 39900 ft 438 kts 287°
2026-04-22 15:05 41.29947 34.72824 39901 ft 438 kts 287°
2026-04-22 15:05 41.31971 34.65190 39903 ft 437 kts 287°
2026-04-22 15:06 41.33991 34.57556 39912 ft 437 kts 287°
2026-04-22 15:06 41.35989 34.49986 39913 ft 431 kts 287°
2026-04-22 15:07 41.36967 34.46282 39922 ft 418 kts 287°
2026-04-22 15:07 41.37920 34.42668 39920 ft 410 kts 287°
2026-04-22 15:07 41.39790 34.35536 39919 ft 408 kts 286°
2026-04-22 15:08 41.41655 34.28392 39929 ft 409 kts 286°
2026-04-22 15:08 41.43500 34.21237 39944 ft 408 kts 286°
2026-04-22 15:09 41.45341 34.14076 39947 ft 408 kts 286°
2026-04-22 15:09 41.47186 34.06914 39966 ft 409 kts 286°
2026-04-22 15:10 41.49018 33.99797 39967 ft 408 kts 286°
2026-04-22 15:10 41.50854 33.92645 39988 ft 407 kts 286°
2026-04-22 15:11 41.52683 33.85497 40010 ft 407 kts 286°
2026-04-22 15:11 41.54508 33.78342 40008 ft 407 kts 286°
2026-04-22 15:12 41.56329 33.71180 40027 ft 408 kts 285°
2026-04-22 15:12 41.58150 33.63999 40026 ft 408 kts 285°
2026-04-22 15:13 41.59970 33.56802 40038 ft 409 kts 285°
2026-04-22 15:13 41.61789 33.49610 40041 ft 409 kts 285°
2026-04-22 15:14 41.63586 33.42451 40047 ft 409 kts 285°
2026-04-22 15:14 41.65407 33.35171 40033 ft 411 kts 285°
2026-04-22 15:15 41.67219 33.27912 40041 ft 412 kts 285°
2026-04-22 15:15 41.69016 33.20692 40058 ft 412 kts 285°
2026-04-22 15:16 41.70819 33.13427 40078 ft 412 kts 285°
2026-04-22 15:16 41.72620 33.06147 40049 ft 412 kts 285°
2026-04-22 15:17 41.74419 32.98865 40046 ft 412 kts 285°
2026-04-22 15:17 41.76212 32.91569 40050 ft 412 kts 285°
2026-04-22 15:18 41.78000 32.84275 40045 ft 412 kts 285°
2026-04-22 15:18 41.79787 32.76970 40047 ft 412 kts 285°
2026-04-22 15:19 41.81569 32.69681 40049 ft 411 kts 285°
2026-04-22 15:19 41.83334 32.62389 40051 ft 411 kts 285°
2026-04-22 15:20 41.85095 32.55093 40041 ft 411 kts 285°
2026-04-22 15:20 41.86852 32.47802 40045 ft 411 kts 285°
2026-04-22 15:21 41.88608 32.40495 40041 ft 412 kts 285°
2026-04-22 15:21 41.90352 32.33175 40042 ft 412 kts 285°
2026-04-22 15:22 41.92099 32.25900 40044 ft 412 kts 285°
2026-04-22 15:22 41.93855 32.18578 40045 ft 412 kts 285°
2026-04-22 15:23 41.95592 32.11249 40046 ft 412 kts 285°
2026-04-22 15:23 41.97321 32.03913 40043 ft 412 kts 285°
2026-04-22 15:24 41.99048 31.96575 40043 ft 412 kts 285°
2026-04-22 15:24 42.00774 31.89228 40059 ft 412 kts 285°
2026-04-22 15:25 42.02501 31.81882 40045 ft 413 kts 285°
2026-04-22 15:25 42.04224 31.74507 40051 ft 413 kts 285°
2026-04-22 15:26 42.05942 31.67131 40050 ft 413 kts 285°
2026-04-22 15:26 42.07657 31.59748 40054 ft 413 kts 285°
2026-04-22 15:27 42.09369 31.52353 40054 ft 415 kts 285°
2026-04-22 15:27 42.11083 31.44925 40053 ft 416 kts 285°
2026-04-22 15:28 42.12792 31.37490 40056 ft 416 kts 285°
2026-04-22 15:28 42.14498 31.30040 40056 ft 416 kts 285°
2026-04-22 15:29 42.16203 31.22586 40062 ft 416 kts 285°
2026-04-22 15:30 42.18465 31.12650 40054 ft 417 kts 285°
2026-04-22 15:30 42.20444 31.03916 40061 ft 417 kts 284°
2026-04-22 15:31 42.22133 30.96432 40061 ft 417 kts 284°
2026-04-22 15:31 42.23807 30.88991 40058 ft 417 kts 285°
2026-04-22 15:32 42.25488 30.81494 40061 ft 418 kts 285°
2026-04-22 15:32 42.27166 30.73985 40061 ft 418 kts 285°
2026-04-22 15:33 42.28840 30.66464 40057 ft 418 kts 284°
2026-04-22 15:33 42.30506 30.58958 40060 ft 418 kts 285°
2026-04-22 15:34 42.32171 30.51429 40063 ft 417 kts 284°
2026-04-22 15:34 42.33828 30.43908 40063 ft 417 kts 284°
2026-04-22 15:35 42.35201 30.37660 40057 ft 417 kts 284°
2026-04-22 15:35 42.37127 30.28860 40068 ft 417 kts 284°
2026-04-22 15:36 42.38767 30.21337 40062 ft 417 kts 284°
2026-04-22 15:36 42.40403 30.13809 40061 ft 417 kts 284°
2026-04-22 15:37 42.42032 30.06285 40062 ft 417 kts 284°
2026-04-22 15:37 42.43655 29.98761 40064 ft 417 kts 284°
2026-04-22 15:38 42.45301 29.91237 40059 ft 418 kts 287°
2026-04-22 15:38 42.47839 29.84134 40065 ft 423 kts 300°
2026-04-22 15:38 42.49496 29.80831 40060 ft 424 kts 301°
2026-04-22 15:39 42.52955 29.74350 40069 ft 425 kts 302°
2026-04-22 15:39 42.56473 29.67892 40065 ft 427 kts 302°
2026-04-22 15:40 42.59989 29.61393 40064 ft 428 kts 302°
2026-04-22 15:40 42.63496 29.54861 40064 ft 428 kts 302°
2026-04-22 15:41 42.66995 29.48316 40064 ft 428 kts 302°
2026-04-22 15:41 42.70492 29.41760 40065 ft 429 kts 302°
2026-04-22 15:42 42.74001 29.35167 40061 ft 431 kts 302°
2026-04-22 15:42 42.77490 29.28600 40062 ft 431 kts 302°
2026-04-22 15:43 42.80997 29.21986 40061 ft 431 kts 302°
2026-04-22 15:43 42.84497 29.15369 40062 ft 431 kts 302°
2026-04-22 15:44 42.87995 29.08742 40059 ft 431 kts 302°
2026-04-22 15:44 42.91491 29.02103 40059 ft 431 kts 302°
2026-04-22 15:45 42.94979 28.95464 40062 ft 431 kts 302°
2026-04-22 15:45 42.98471 28.88802 40064 ft 432 kts 302°
2026-04-22 15:46 43.01964 28.82123 40063 ft 432 kts 302°
2026-04-22 15:46 43.05452 28.75441 40062 ft 432 kts 302°
2026-04-22 15:47 43.08347 28.69881 40061 ft 432 kts 302°
2026-04-22 15:47 43.11710 28.63411 40063 ft 432 kts 302°
2026-04-22 15:48 43.15748 28.55623 40059 ft 431 kts 302°
2026-04-22 15:48 43.18657 28.50000 40058 ft 431 kts 302°
2026-04-22 15:49 43.22126 28.43281 40063 ft 431 kts 302°
2026-04-22 15:49 43.25561 28.36611 40054 ft 431 kts 302°
2026-04-22 15:50 43.29014 28.29892 40050 ft 431 kts 302°
2026-04-22 15:50 43.32466 28.23161 40050 ft 431 kts 302°
2026-04-22 15:51 43.35912 28.16424 40057 ft 431 kts 302°
2026-04-22 15:51 43.39356 28.09677 40062 ft 431 kts 302°
2026-04-22 15:52 43.42802 28.02908 40063 ft 432 kts 302°
2026-04-22 15:52 43.46241 27.96141 40062 ft 432 kts 302°
2026-04-22 15:53 43.49679 27.89358 40058 ft 432 kts 302°
2026-04-22 15:53 43.53117 27.82560 40056 ft 433 kts 302°
2026-04-22 15:54 43.56559 27.75738 40052 ft 434 kts 302°
2026-04-22 15:54 43.60001 27.68900 40047 ft 434 kts 302°
2026-04-22 15:55 43.63440 27.62053 40053 ft 434 kts 302°
2026-04-22 15:55 43.66880 27.55187 40048 ft 435 kts 302°
2026-04-22 15:56 43.70321 27.48303 40048 ft 435 kts 302°
2026-04-22 15:56 43.73758 27.41413 40052 ft 435 kts 302°
2026-04-22 15:57 43.77165 27.34564 40051 ft 435 kts 302°
2026-04-22 15:57 43.80593 27.27658 40063 ft 435 kts 302°
2026-04-22 15:58 43.84011 27.20755 40046 ft 435 kts 302°
2026-04-22 15:58 43.87432 27.13830 40047 ft 435 kts 302°
2026-04-22 15:59 43.90848 27.06899 40052 ft 435 kts 302°
2026-04-22 15:59 43.94275 26.99928 40048 ft 442 kts 302°
2026-04-22 16:00 43.97770 26.92799 40044 ft 451 kts 302°
2026-04-22 16:00 44.01339 26.85505 40043 ft 460 kts 302°
2026-04-22 16:01 44.04958 26.78091 40045 ft 465 kts 302°
2026-04-22 16:01 44.08577 26.70637 40043 ft 465 kts 302°
2026-04-22 16:02 44.12085 26.63081 40045 ft 465 kts 301°
2026-04-22 16:02 44.15586 26.55520 40045 ft 465 kts 301°
2026-04-22 16:03 44.19084 26.47965 40045 ft 465 kts 301°
2026-04-22 16:03 44.22564 26.40436 40044 ft 465 kts 301°
2026-04-22 16:04 44.26057 26.32863 40050 ft 465 kts 301°
2026-04-22 16:04 44.29550 26.25268 40045 ft 465 kts 301°
2026-04-22 16:05 44.33046 26.17649 40049 ft 466 kts 301°
2026-04-22 16:05 44.36541 26.10011 40048 ft 467 kts 301°
2026-04-22 16:06 44.40029 26.02366 40050 ft 467 kts 301°
2026-04-22 16:06 44.43516 25.94706 40051 ft 467 kts 301°
2026-04-22 16:07 44.47000 25.87032 40044 ft 467 kts 301°
2026-04-22 16:07 44.50123 25.80134 40056 ft 467 kts 301°
2026-04-22 16:08 44.53424 25.72829 40055 ft 467 kts 301°
2026-04-22 16:08 44.56894 25.65123 40053 ft 467 kts 301°
2026-04-22 16:09 44.60362 25.57405 40048 ft 468 kts 301°
2026-04-22 16:09 44.63833 25.49659 40044 ft 468 kts 301°
2026-04-22 16:10 44.67271 25.41964 40051 ft 468 kts 301°
2026-04-22 16:10 44.70730 25.34204 40044 ft 469 kts 301°
2026-04-22 16:11 44.74192 25.26413 40045 ft 469 kts 301°
2026-04-22 16:11 44.77650 25.18613 40058 ft 470 kts 301°
2026-04-22 16:12 44.81103 25.10802 40046 ft 470 kts 301°
2026-04-22 16:12 44.84551 25.02979 40045 ft 470 kts 301°
2026-04-22 16:13 44.87996 24.95142 40047 ft 470 kts 301°
2026-04-22 16:13 44.91435 24.87298 40049 ft 470 kts 301°
2026-04-22 16:14 44.94869 24.79444 40052 ft 470 kts 301°
2026-04-22 16:14 44.98302 24.71570 40052 ft 471 kts 301°
2026-04-22 16:15 45.01730 24.63686 40052 ft 471 kts 301°
2026-04-22 16:15 45.05153 24.55790 40062 ft 471 kts 301°
2026-04-22 16:16 45.08551 24.47932 40044 ft 471 kts 301°
2026-04-22 16:16 45.11965 24.40012 40044 ft 471 kts 301°
2026-04-22 16:17 45.15375 24.32082 40052 ft 472 kts 301°
2026-04-22 16:17 45.18788 24.24123 40055 ft 473 kts 301°
2026-04-22 16:18 45.22200 24.16141 40054 ft 473 kts 301°
2026-04-22 16:18 45.25607 24.08151 40062 ft 473 kts 301°
2026-04-22 16:19 45.29008 24.00151 40069 ft 473 kts 301°
2026-04-22 16:19 45.32408 23.92130 40070 ft 473 kts 301°
2026-04-22 16:20 45.35800 23.84106 40078 ft 473 kts 301°
2026-04-22 16:20 45.39160 23.76133 40076 ft 473 kts 301°
2026-04-22 16:21 45.42538 23.68096 40078 ft 473 kts 301°
2026-04-22 16:21 45.45915 23.60040 40077 ft 473 kts 301°
2026-04-22 16:22 45.50963 23.47951 40081 ft 473 kts 300°
2026-04-22 16:23 45.55994 23.35849 40076 ft 473 kts 300°
2026-04-22 16:23 45.59343 23.27767 40081 ft 473 kts 300°
2026-04-22 16:24 45.64363 23.15605 40077 ft 475 kts 300°
2026-04-22 16:25 45.67716 23.07454 40080 ft 475 kts 300°
2026-04-22 16:25 45.72731 22.95216 40080 ft 475 kts 300°
2026-04-22 16:26 45.76072 22.87033 40080 ft 476 kts 300°
2026-04-22 16:26 45.79402 22.78852 40081 ft 476 kts 300°
2026-04-22 16:27 45.82734 22.70645 40083 ft 476 kts 300°
2026-04-22 16:27 45.86057 22.62433 40078 ft 476 kts 300°
2026-04-22 16:28 45.89353 22.54264 40082 ft 476 kts 300°
2026-04-22 16:28 45.92669 22.46021 40084 ft 476 kts 300°
2026-04-22 16:29 45.95974 22.37781 40084 ft 476 kts 300°
2026-04-22 16:29 45.99273 22.29532 40082 ft 476 kts 300°
2026-04-22 16:30 46.02571 22.21259 40091 ft 476 kts 300°
2026-04-22 16:30 46.05865 22.12974 40088 ft 477 kts 300°
2026-04-22 16:31 46.09155 22.04672 40091 ft 477 kts 300°
2026-04-22 16:31 46.12437 21.96364 40086 ft 477 kts 300°
2026-04-22 16:32 46.15715 21.88044 40090 ft 477 kts 300°
2026-04-22 16:32 46.18987 21.79711 40108 ft 477 kts 300°
2026-04-22 16:33 46.22255 21.71364 40096 ft 478 kts 300°
2026-04-22 16:33 46.25521 21.62997 40106 ft 478 kts 300°
2026-04-22 16:34 46.28783 21.54615 40106 ft 478 kts 300°
2026-04-22 16:34 46.31492 21.47635 40110 ft 479 kts 300°
2026-04-22 16:35 46.34746 21.39226 40109 ft 479 kts 300°
2026-04-22 16:35 46.38518 21.29443 40110 ft 479 kts 300°
2026-04-22 16:36 46.41235 21.22378 40115 ft 479 kts 300°
2026-04-22 16:36 46.44453 21.13984 40113 ft 479 kts 300°
2026-04-22 16:37 46.47686 21.05524 40121 ft 479 kts 300°
2026-04-22 16:37 46.50915 20.97051 40107 ft 480 kts 300°
2026-04-22 16:38 46.54140 20.88560 40112 ft 480 kts 300°
2026-04-22 16:38 46.57361 20.80053 40112 ft 480 kts 300°
2026-04-22 16:39 46.60575 20.71536 40113 ft 480 kts 300°
2026-04-22 16:39 46.63786 20.63003 40104 ft 481 kts 300°
2026-04-22 16:40 46.66995 20.54447 40107 ft 482 kts 300°
2026-04-22 16:41 46.71809 20.41561 40111 ft 483 kts 300°
2026-04-22 16:41 46.75009 20.32959 40107 ft 483 kts 300°
2026-04-22 16:42 46.78203 20.24349 40102 ft 483 kts 300°
2026-04-22 16:42 46.81390 20.15726 40104 ft 483 kts 300°
2026-04-22 16:43 46.84549 20.07154 40109 ft 483 kts 300°
2026-04-22 16:43 46.87724 19.98510 40105 ft 483 kts 300°
2026-04-22 16:44 46.90894 19.89853 40105 ft 483 kts 300°
2026-04-22 16:44 46.94061 19.81176 40103 ft 483 kts 300°
2026-04-22 16:45 46.97220 19.72490 40100 ft 483 kts 300°
2026-04-22 16:45 47.00377 19.63785 40112 ft 483 kts 300°
2026-04-22 16:46 47.03523 19.55079 40118 ft 484 kts 300°
2026-04-22 16:46 47.06666 19.46354 40114 ft 484 kts 300°
2026-04-22 16:47 47.09802 19.37620 40113 ft 484 kts 300°
2026-04-22 16:47 47.12929 19.28882 40099 ft 484 kts 300°
2026-04-22 16:48 47.16052 19.20124 40111 ft 484 kts 300°
2026-04-22 16:48 47.19173 19.11344 40110 ft 484 kts 300°
2026-04-22 16:49 47.22286 19.02559 40109 ft 484 kts 300°
2026-04-22 16:49 47.25392 18.93764 40100 ft 484 kts 299°
2026-04-22 16:50 47.28488 18.84965 40006 ft 479 kts 299°
2026-04-22 16:50 47.30014 18.80617 39602 ft 478 kts 300°
2026-04-22 16:50 47.31541 18.76260 39129 ft 480 kts 300°
2026-04-22 16:50 47.33073 18.71885 38561 ft 481 kts 300°
2026-04-22 16:51 47.34582 18.67559 37877 ft 467 kts 300°
2026-04-22 16:51 47.36045 18.63357 37239 ft 454 kts 300°
2026-04-22 16:51 47.37464 18.59275 36617 ft 441 kts 300°
2026-04-22 16:51 47.38845 18.55298 35995 ft 429 kts 300°
2026-04-22 16:52 47.40189 18.51425 35401 ft 418 kts 301°
2026-04-22 16:52 47.41497 18.47649 34824 ft 408 kts 301°
2026-04-22 16:52 47.42756 18.44011 34269 ft 399 kts 301°
2026-04-22 16:52 47.44006 18.40395 33617 ft 393 kts 301°
2026-04-22 16:53 47.45240 18.36824 32944 ft 389 kts 301°
2026-04-22 16:53 47.46461 18.33285 32297 ft 384 kts 301°
2026-04-22 16:53 47.47667 18.29781 31670 ft 380 kts 301°
2026-04-22 16:53 47.48858 18.26317 30991 ft 376 kts 301°
2026-04-22 16:54 47.50041 18.22875 30277 ft 376 kts 302°
2026-04-22 16:54 47.51225 18.19425 29446 ft 376 kts 302°
2026-04-22 16:54 47.52407 18.15977 28609 ft 376 kts 301°
2026-04-22 16:54 47.53589 18.12523 27814 ft 376 kts 301°
2026-04-22 16:55 47.54768 18.09073 27031 ft 376 kts 301°
2026-04-22 16:55 47.55946 18.05619 26264 ft 375 kts 301°
2026-04-22 16:55 47.57120 18.02172 25524 ft 375 kts 301°
2026-04-22 16:55 47.58291 17.98729 24802 ft 373 kts 301°
2026-04-22 16:56 47.59456 17.95298 24107 ft 372 kts 301°
2026-04-22 16:56 47.60613 17.91887 23342 ft 370 kts 301°
2026-04-22 16:56 47.61761 17.88496 22537 ft 367 kts 301°
2026-04-22 16:56 47.62902 17.85123 21738 ft 364 kts 301°
2026-04-22 16:57 47.64029 17.81785 20980 ft 358 kts 301°
2026-04-22 16:57 47.65129 17.78522 20223 ft 350 kts 301°
2026-04-22 16:57 47.66202 17.75332 19523 ft 341 kts 301°
2026-04-22 16:57 47.67250 17.72219 18855 ft 334 kts 301°
2026-04-22 16:58 47.67931 17.70194 18392 ft 329 kts 301°
2026-04-22 16:58 47.69279 17.66181 17360 ft 320 kts 301°
2026-04-22 16:58 47.70265 17.63242 16619 ft 315 kts 301°
2026-04-22 16:58 47.71225 17.60377 16189 ft 306 kts 301°
2026-04-22 16:59 47.72158 17.57587 16005 ft 296 kts 301°
2026-04-22 16:59 47.73058 17.54894 15796 ft 288 kts 301°
2026-04-22 16:59 47.73943 17.52246 15469 ft 285 kts 301°
2026-04-22 16:59 47.74881 17.49726 15092 ft 279 kts 310°
2026-04-22 17:00 47.76268 17.47815 14724 ft 269 kts 334°
2026-04-22 17:00 47.79769 17.47318 13955 ft 257 kts 20°
2026-04-22 17:00 47.81271 17.48726 13507 ft 258 kts 43°
2026-04-22 17:01 47.82239 17.50964 13088 ft 262 kts 67°
2026-04-22 17:01 47.82470 17.53666 12648 ft 269 kts 92°
2026-04-22 17:01 47.81879 17.56330 12267 ft 276 kts 116°
2026-04-22 17:01 47.80840 17.58725 11902 ft 275 kts 121°
2026-04-22 17:02 47.79733 17.61040 11511 ft 274 kts 122°
2026-04-22 17:02 47.78627 17.63341 11145 ft 273 kts 121°
2026-04-22 17:02 47.77538 17.65646 10788 ft 271 kts 121°
2026-04-22 17:02 47.76462 17.67937 10438 ft 269 kts 121°
2026-04-22 17:03 47.75398 17.70217 10093 ft 268 kts 121°
2026-04-22 17:03 47.74336 17.72479 9692 ft 267 kts 121°
2026-04-22 17:03 47.73221 17.74697 9281 ft 269 kts 128°
2026-04-22 17:03 47.71721 17.76351 8843 ft 274 kts 155°
2026-04-22 17:04 47.69845 17.76713 8431 ft 275 kts 188°
2026-04-22 17:04 47.68106 17.75642 8023 ft 271 kts 219°
2026-04-22 17:04 47.66927 17.73533 7657 ft 263 kts 248°
2026-04-22 17:04 47.66514 17.70964 7296 ft 253 kts 274°
2026-04-22 17:05 47.66863 17.68478 7018 ft 243 kts 298°
2026-04-22 17:05 47.67690 17.66350 6962 ft 241 kts 307°
2026-04-22 17:05 47.68612 17.64272 6972 ft 241 kts 307°
2026-04-22 17:05 47.69529 17.62186 6961 ft 241 kts 306°
2026-04-22 17:06 47.70434 17.60088 6962 ft 241 kts 306°
2026-04-22 17:06 47.71329 17.57988 6966 ft 241 kts 306°
2026-04-22 17:06 47.72223 17.55879 6967 ft 241 kts 306°
2026-04-22 17:06 47.73114 17.53766 6968 ft 241 kts 306°
2026-04-22 17:07 47.74003 17.51655 6965 ft 241 kts 306°
2026-04-22 17:07 47.74937 17.49594 6968 ft 239 kts 313°
2026-04-22 17:07 47.76213 17.48085 6966 ft 234 kts 337°
2026-04-22 17:07 47.77780 17.47614 6968 ft 231 kts
2026-04-22 17:08 47.79313 17.48292 6963 ft 234 kts 29°
2026-04-22 17:08 47.80485 17.49973 6968 ft 239 kts 54°
2026-04-22 17:08 47.81011 17.52336 6968 ft 247 kts 82°
2026-04-22 17:08 47.80698 17.54876 6974 ft 256 kts 111°
2026-04-22 17:09 47.79802 17.57184 6962 ft 260 kts 119°
2026-04-22 17:09 47.78813 17.59442 6966 ft 260 kts 119°
2026-04-22 17:09 47.78173 17.60948 6964 ft 260 kts 118°
2026-04-22 17:09 47.76893 17.64007 6964 ft 260 kts 118°
2026-04-22 17:10 47.75945 17.66287 6963 ft 260 kts 118°
2026-04-22 17:10 47.74999 17.68545 6973 ft 260 kts 118°
2026-04-22 17:10 47.74037 17.70810 6959 ft 260 kts 119°
2026-04-22 17:10 47.72820 17.72892 6957 ft 278 kts 137°
2026-04-22 17:11 47.71061 17.74185 6962 ft 289 kts 168°
2026-04-22 17:11 47.69076 17.73959 6964 ft 288 kts 202°
2026-04-22 17:11 47.67490 17.72246 6965 ft 282 kts 236°
2026-04-22 17:11 47.66790 17.69629 6969 ft 272 kts 269°
2026-04-22 17:12 47.67167 17.66974 6968 ft 262 kts 303°
2026-04-22 17:12 47.68233 17.64809 6963 ft 260 kts 312°
2026-04-22 17:12 47.69353 17.62676 6961 ft 262 kts 309°
2026-04-22 17:12 47.70399 17.60461 6960 ft 263 kts 307°
2026-04-22 17:13 47.71389 17.58185 6972 ft 263 kts 305°
2026-04-22 17:13 47.72348 17.55871 6967 ft 263 kts 304°
2026-04-22 17:13 47.73284 17.53538 6959 ft 263 kts 303°
2026-04-22 17:13 47.74099 17.51088 6960 ft 266 kts 295°
2026-04-22 17:14 47.74491 17.48384 6974 ft 272 kts 276°
2026-04-22 17:14 47.74409 17.45568 6974 ft 274 kts 268°
2026-04-22 17:14 47.74213 17.42747 6856 ft 275 kts 268°
2026-04-22 17:14 47.74005 17.39936 6629 ft 273 kts 268°
2026-04-22 17:15 47.73868 17.38072 6532 ft 273 kts 268°
2026-04-22 17:15 47.73596 17.34331 6452 ft 272 kts 268°
2026-04-22 17:15 47.73395 17.31538 6404 ft 272 kts 268°
2026-04-22 17:15 47.73195 17.28745 6349 ft 272 kts 268°
2026-04-22 17:16 47.72995 17.25955 6294 ft 272 kts 268°
2026-04-22 17:16 47.72797 17.23197 6247 ft 272 kts 268°
2026-04-22 17:16 47.72597 17.20413 6199 ft 271 kts 268°
2026-04-22 17:16 47.72395 17.17629 6145 ft 271 kts 268°
2026-04-22 17:17 47.72192 17.14840 6097 ft 271 kts 268°
2026-04-22 17:17 47.71989 17.12056 6052 ft 271 kts 268°
2026-04-22 17:17 47.71785 17.09270 5994 ft 270 kts 268°
2026-04-22 17:17 47.71733 17.06496 5983 ft 267 kts 281°
2026-04-22 17:18 47.72305 17.03941 5979 ft 258 kts 304°
2026-04-22 17:18 47.73340 17.01808 5980 ft 253 kts 312°
2026-04-22 17:18 47.74452 16.99794 5986 ft 252 kts 313°
2026-04-22 17:18 47.75572 16.97772 5986 ft 252 kts 313°
2026-04-22 17:19 47.77790 16.93719 5984 ft 253 kts 312°
2026-04-22 17:19 47.79974 16.89694 5221 ft 250 kts 312°
2026-04-22 17:20 47.82151 16.85673 4328 ft 248 kts 312°
2026-04-22 17:20 47.84310 16.81678 3450 ft 247 kts 312°
2026-04-22 17:21 47.85385 16.79686 3073 ft 246 kts 311°
2026-04-22 17:21 47.87352 16.76024 3002 ft 216 kts 312°
2026-04-22 17:22 47.89225 16.72546 2994 ft 215 kts 312°
2026-04-22 17:22 47.90159 16.70811 2991 ft 214 kts 312°
2026-04-22 17:22 47.91722 16.67907 2990 ft 212 kts 312°
2026-04-22 17:23 47.92659 16.66339 2991 ft 193 kts 323°
2026-04-22 17:23 47.94932 16.64975 2998 ft 173 kts 346°
2026-04-22 17:23 47.96094 16.65207 2991 ft 174 kts 30°
2026-04-22 17:24 47.96727 16.66737 3001 ft 186 kts 78°
2026-04-22 17:24 47.96450 16.68659 2999 ft 195 kts 112°
2026-04-22 17:24 47.95648 16.70324 2992 ft 201 kts 127°
2026-04-22 17:24 47.94709 16.71899 2992 ft 204 kts 127°
2026-04-22 17:25 47.93804 16.73526 2990 ft 203 kts 123°
2026-04-22 17:25 47.92943 16.75175 2993 ft 203 kts 123°
2026-04-22 17:25 47.91885 16.76580 2988 ft 209 kts 153°
2026-04-22 17:25 47.90465 16.76765 2992 ft 208 kts 200°
2026-04-22 17:26 47.89378 16.75500 2996 ft 197 kts 245°
2026-04-22 17:26 47.88838 16.73649 2993 ft 194 kts 259°
2026-04-22 17:26 47.88781 16.71709 2988 ft 184 kts 290°
2026-04-22 17:26 47.89434 16.70178 2998 ft 174 kts 319°
2026-04-22 17:27 47.90344 16.68981 2996 ft 176 kts 322°
2026-04-22 17:27 47.91224 16.67703 2994 ft 178 kts 317°
2026-04-22 17:27 47.92124 16.66428 2992 ft 178 kts 325°
2026-04-22 17:27 47.93205 16.65595 2997 ft 175 kts 344°
2026-04-22 17:28 47.94377 16.65113 2993 ft 174 kts 347°
2026-04-22 17:28 47.95532 16.64673 2995 ft 165 kts 346°
2026-04-22 17:28 47.96587 16.64261 3020 ft 150 kts 347°
2026-04-22 17:28 47.97552 16.63901 2992 ft 138 kts 346°
2026-04-22 17:29 47.98456 16.63513 2819 ft 135 kts 345°
2026-04-22 17:29 47.99355 16.63134 2612 ft 135 kts 346°
2026-04-22 17:29 48.00259 16.62761 2417 ft 135 kts 346°
2026-04-22 17:29 48.01162 16.62381 2232 ft 135 kts 347°
2026-04-22 17:30 48.02058 16.62005 2045 ft 130 kts 347°
2026-04-22 17:30 48.02917 16.61643 1873 ft 125 kts 346°
2026-04-22 17:30 48.03737 16.61298 1708 ft 121 kts 346°
2026-04-22 17:30 48.04544 16.60957 1535 ft 120 kts 346°
2026-04-22 17:31 48.05345 16.60621 1369 ft 119 kts 346°
2026-04-22 17:31 48.06133 16.60288 1200 ft 120 kts 345°
2026-04-22 17:31 48.06953 16.59941 1043 ft 121 kts 345°
2026-04-22 17:31 48.07743 16.59608 874 ft 118 kts 344°
2026-04-22 17:32 48.08533 16.59272 721 ft 120 kts 343°
2026-04-22 17:32 48.09321 16.58930 628 ft 113 kts 343°
2026-04-22 17:32 48.10011 16.58649 623 ft 90 kts 345°
2026-04-22 17:32 48.10544 16.58424 627 ft 72 kts 343°
2026-04-22 17:33 48.10847 16.58297 627 ft 62 kts 345°
2026-04-22 17:33 48.11341 16.58088 626 ft 50 kts 344°
2026-04-22 17:33 48.11659 16.57955 629 ft 45 kts 344°
2026-04-22 17:33 48.11848 16.57798 627 ft 26 kts 295°
2026-04-22 17:34 48.11857 16.57631 626 ft 0 kts 252°
2026-04-22 17:35 48.11836 16.57544 629 ft 19 kts 253°
2026-04-22 17:35 48.11811 16.57365 622 ft 16 kts 277°
2026-04-22 17:36 48.11861 16.57196 618 ft 20 kts 296°
2026-04-22 17:36 48.11920 16.57015 627 ft 18 kts 296°
2026-04-22 17:36 48.11960 16.56897 629 ft 8 kts 310°
2026-04-22 17:36 48.11973 16.56896 629 ft 3 kts
2026-04-22 17:37 48.12018 16.56925 629 ft 3 kts 24°